TURKSAT 6A

Last updated on Sun Jul 06 2025 00:02:47 GMT+0000 (Coordinated Universal Time)

1 60233U 24127A 25186.21621289 .00000162 00000+0 00000+0 0 9990 2 60233 0.0566 208.3604 0002362 307.4032 247.5358 1.00272860 3539
UTC large
Height (km)
Speed (km/s)
/
Latitude / Longitude
Inclination (degrees)
Orbital Period (minutes)
Azimuth
Elevation
Range (km)
Doppler Factor

Next 0 passes for location: London (51.5072 / 0.1276)

Sorry there are no passes over London.